{"data":{"norad_id":47448,"intl_designator":"2021-006AM","name":"CUBEL","alt_names":[],"object_type":"PAYLOAD","status":"ACTIVE","operator":null,"country":"GER","launch_date":"2021-01-24","launch_site_code":"AFETR","launch_vehicle":null,"mission":null,"orbit_class":"UNKNOWN","rcs_meters":null,"size_class":null,"mass_kg":null,"dimensions":null,"purposes":[],"wikipedia_slug":null,"has_3d_model":false,"image_url":null,"decayed_at":null,"tle_current":{"epoch":"2026-05-25T02:35:16.748736Z","epoch_age_seconds":68913,"freshness":"FRESH","line1":"1 47448U 21006AM  26145.10783274  .00007890  00000+0  19594-3 0  9990","line2":"2 47448  97.2352 195.9196 0004955 247.9505 112.1216 15.40588361296206","mean_motion":15.40588361,"eccentricity":0.0004955,"inclination_deg":97.2352,"raan_deg":195.9196,"arg_perigee_deg":247.9505,"mean_anomaly_deg":112.1216,"bstar":0.00019594,"rev_number":29620,"period_min":93.470782751162,"perigee_km":440.99117075159,"apogee_km":447.7522768969,"semimajor_km":6822.5087238242,"source":"CELESTRAK","updated_at":"2026-05-25T13:37:56.472452Z"}}}